Tracking 19720 objects as of 27-Jun-2019
HD Live streaming from Space Station
objects crossing your sky now

SL-12 R/B(2)

Track SL-12 R/B(2) now!


NORAD ID: 17125
Int'l Code: 1986-090D
Perigee: 35,751.9 km
Apogee: 35,827.2 km
Inclination: 14.0 °
Period: 1,435.9 minutes
Semi major axis: 42160 km
RCS: 1.5849 m2 (large)
Launch date: November 18, 1986
Source: Commonwealth of Independent States (former USSR) (CIS)
Launch site: TYURATAM MISSILE AND SPACE COMPLEX (TTMTR)

Note: This is a ROCKET BODY
aabbcc
Your satellite tracking list
Your tracking list is empty




NASA's NSSDC Master Catalog

Two Line Element Set (TLE):
1 17125U 86090D   19177.13913113  .00000098  00000-0  00000+0 0  9992
2 17125  13.9743 343.5260 0008931  92.2343 267.8774  1.00286760119352
Source of the keplerian elements: AFSPC